Regional Weather Roundup
Issued by NWS Portland, ME

Current Version | Previous Version | Text Only | Print | Product List | Glossary Off
Versions: 1 2 3 4 5 6 7 8 9 10 11 12 13 14 15 16 17 18 19 20 21 22 23 24 25 26 27 28 29 30 31 32 33 34 35 36 37 38 39 40 41 42 43 44 45 46 47 48 49 50
000 ASUS41 KGYX 180110 RWRGYX WEATHER ROUNDUP FOR MAINE AND NEW HAMPSHIRE NATIONAL WEATHER SERVICE GRAY ME 900 PM EDT TUE OCT 17 2017 MEZ002-005-006-010-012-015-018-020-021-024-026-027-029-180200- MAINE CITY SKY/WX TMP DP RH WIND PRES REMARKS PORTLAND CLEAR 48 33 56 SW7G17 30.18S SANFORD CLEAR 44 34 67 SW6 30.20R BAR HARBOR CLEAR 47 38 71 SW8 30.17S WISCASSET CLEAR 42 38 85 CALM 30.19S ROCKLAND CLEAR 49 41 74 SW8 30.17S FRYEBURG CLEAR 37 35 92 CALM 30.15S LEWISTONAUBURN CLEAR 45 32 60 S9 30.16R AUGUSTA CLEAR 44 37 76 S6 30.15S WATERVILLE CLEAR 44 37 76 S6 30.11S BANGOR PTCLDY 46 32 58 S10 30.15R GREENVILLE N/A 43 31 62 S9 30.05R MILLINOCKET CLOUDY 46 32 58 VRB5 30.10S HOULTON CLOUDY 45 31 58 S9G18 30.06S PRESQUE ISLE CLOUDY 47 32 56 S15 30.03S FRENCHVILLE LGT RAIN 43 31 62 S8 29.97S CARIBOU CLOUDY 47 31 53 S10G20 30.01R $$ NHZ002-005-008-009-011-012-014-180200- NEW HAMPSHIRE CITY SKY/WX TMP DP RH WIND PRES REMARKS PORTSMOUTH CLEAR 46 32 57 S8 30.19S ROCHESTER CLEAR 43 33 68 CALM 30.19R NASHUA CLEAR 47 34 60 CALM 30.23R MANCHESTER CLEAR 47 34 60 SW3 30.20R CONCORD CLEAR 44 33 65 S7 30.19S LACONIA CLEAR 47 32 56 W6 30.18R PLYMOUTH FAIR 36 34 94 CALM 30.17S BERLIN CLEAR 34 31 88 S3 30.10S WHITEFIELD CLEAR 33 30 88 CALM 30.12S JAFFREY CLEAR 44 35 70 S3 30.21R KEENE CLEAR 38 33 82 S3 30.22R LEBANON CLEAR 43 30 60 S8 30.15S MT WASHINGTON PTCLDY 27 19 74 W39 N/A WCI 8 $$ VTZ005-007-008-180200- VERMONT CITY SKY/WX TMP DP RH WIND PRES REMARKS ST JOHNSBURY N/A 48 31 51 MISG 30.10S MONTPELIER PTCLDY 44 31 60 S8 30.15S BURLINGTON PTCLDY 51 32 48 S14 30.10R $$ MAZ007-012-024-CTZ003-RIZ002-NYZ038-NYZ072-180200- SOUTHERN NEW ENGLAND AND NY CITY SKY/WX TMP DP RH WIND PRES REMARKS BOSTON CLEAR 50 37 61 SW16 30.24R WORCESTER CLEAR 44 28 53 SW9 30.23R NANTUCKET CLEAR 46 39 76 SW7 30.27S PROVIDENCE CLEAR 47 39 74 SW7 30.28R HARTFORD CLEAR 48 37 65 S7 30.25R ALBANY CLEAR 49 34 56 S8 30.20F NEW YORK CITY CLEAR 56 41 57 SW7 30.28R $$ ANZ081-ANZ082-ANZ150-NHZ014-MEZ023>029-180200- COASTAL MARINE OBSERVATIONS STATION/POSITION TIME TEMP WIND PRES WAVE AIR SEA DIR/SP/G HT/PER (UTC) (F) (DEG/KT/KT) (MB) (FT/S) MOUNT DESERT ROC 0100 51 220/ 18/ 19 1022.3R MATINICUS ROCK 0000 51 220/ 19/ 20 1021.7F ISLE OF SHOALS 0000 54 200/ 20/ 21 1022.4R JEFFREYS LEDGE 0036 59 N/A 3/ 3 GEORGES BANK BUO 2350 51 63 1022.7 7/ 8 $$ .............KEY.............. WCI - WIND CHILL TC - TEMPERATURE IN CELSIUS VSB - VISIBILITY IN MILES HX - HEAT INDEX FAIR- INDICATES FEW OR NO CLOUDS BELOW 12,000 FT, WITH NO SIGNIFICANT WEATHER AND/OR OBSTRUCTIONS TO VISIBILITY.

USA.gov is the U.S. government's official web portal to all federal, state and local government web resources and services.